1504605600.09,52434,15.0,73704.5,4.51,-11.97,-9.71,0,*48
1504605601.34,52435,15.0,73690.5,4.55,-12.65,-10.49,0,*70
1504605602.55,52436,15.0,73704.3,4.61,-12.43,-10.19,0,*75
1504605603.82,52437,15.0,73708.5,4.67,-11.51,-9.45,0,*43
1504605605.03,52438,15.0,73714.0,4.69,-12.29,-10.35,0,*71
1504605606.26,52439,15.0,73710.8,4.73,-11.97,-10.27,0,*7E
1504605607.49,52440,15.0,73698.0,4.77,-13.07,-11.55,0,*7B
1504605608.75,52441,15.0,73704.5,4.79,-13.15,-11.89,0,*76
1504605610.0,52442,15.0,73700.5,4.81,-14.55,-13.61,0,*75
1504605611.24,52443,15.0,73704.5,4.81,-15.21,-14.43,0,*71
1504605612.44,52444,15.0,73704.5,4.81,-14.19,-13.55,0,*7C
1504605613.68,52445,15.0,73710.3,4.85,-14.97,-14.43,0,*7F
1504605614.96,52446,15.0,73706.5,4.87,-16.69,-16.13,0,*7A
1504605616.16,52447,15.0,73710.5,4.85,-15.71,-15.53,0,*74
1504605617.39,52448,15.0,73712.8,4.87,-13.69,-13.43,0,*71
1504605618.58,52449,15.0,73712.5,4.89,-13.93,-13.73,0,*78
1504605619.84,52450,15.0,73710.3,4.91,-14.47,-14.33,0,*74
1504605621.11,52451,15.0,73712.3,4.91,-14.83,-14.93,0,*77
1504605622.38,52452,15.0,73712.0,4.93,-14.19,-14.55,0,*7F
1504605623.58,52453,15.0,73716.5,4.95,-13.15,-13.51,0,*70
1504605624.83,52454,15.0,73712.5,4.99,-13.01,-13.37,0,*7E
1504605626.05,52455,15.0,73712.3,5.09,-13.65,-14.11,0,*76
1504605627.28,52456,15.0,73716.5,5.11,-13.83,-14.33,0,*74
1504605628.54,52457,15.0,73720.5,5.13,-14.19,-14.79,0,*7D
1504605629.78,52458,15.0,73718.5,5.17,-14.97,-15.63,0,*7A
1504605631.02,52459,15.0,73714.8,5.21,-16.23,-16.89,0,*74
1504605632.3,52460,15.0,73722.3,5.21,-16.69,-17.45,0,*71
1504605633.52,52461,15.0,73720.8,5.21,-16.89,-17.49,0,*72
1504605634.74,52462,15.0,73722.3,5.23,-16.83,-17.45,0,*75
1504605635.98,52463,15.06,73728.8,5.25,-17.41,-17.83,0,*77
1504605637.23,52464,15.0,73712.3,5.25,-18.31,-18.89,0,*7D
1504605638.45,52465,15.0,73712.0,5.29,-20.53,-21.39,0,*7E
1504605639.65,52466,15.0,73710.3,5.23,-22.37,-23.13,0,*7D
1504605640.86,52467,15.0,73712.3,5.19,-19.91,-20.39,0,*7A
1504605642.09,52468,15.0,73716.3,5.21,-19.13,-19.71,0,*72
1504605643.34,52469,15.0,73726.0,5.21,-20.79,-21.39,0,*72
1504605644.56,52470,15.0,73718.5,5.19,-22.41,-23.19,0,*78
1504605645.82,52471,15.0,73680.3,5.17,-22.21,-22.93,0,*72
1504605647.04,52472,15.0,73658.5,5.15,-22.83,-23.65,0,*73
1504605648.27,52473,15.0,73684.8,5.13,-19.95,-20.29,0,*70
1504605649.49,52474,15.0,73692.8,5.13,-19.03,-19.37,0,*7D
1504605650.76,52475,15.0,73702.5,5.17,-18.59,-18.89,0,*72
1504605651.98,52476,15.0,73710.0,5.17,-18.69,-18.99,0,*73
1504605653.2,52477,15.0,73708.3,5.21,-18.41,-18.69,0,*72
1504605654.45,52478,15.0,73716.0,5.21,-18.35,-18.49,0,*7C
1504605655.64,52479,15.0,73720.8,5.25,-20.73,-21.09,0,*7E
1504605656.9,52480,15.0,73716.8,5.25,-21.27,-21.53,0,*77
1504605658.15,52481,15.0,73720.5,5.23,-21.33,-21.27,0,*76
1504605659.39,52482,15.0,73718.5,5.25,-19.81,-19.81,0,*76
1504605660.64,52483,15.0,73720.3,5.23,-20.53,-20.79,0,*79
1504605661.84,52484,15.0,73720.3,5.23,-22.37,-22.67,0,*73
1504605663.08,52485,15.0,73722.8,5.21,-22.37,-22.73,0,*75
1504605664.31,52486,15.0,73720.8,5.19,-22.57,-23.19,0,*76
1504605665.52,52487,15.0,73724.3,5.15,-24.47,-25.23,0,*73
1504605666.75,52488,15.0,73724.8,5.13,-24.61,-25.39,0,*75
1504605667.98,52489,15.0,73730.0,5.09,-24.31,-25.19,0,*78
1504605669.24,52490,15.0,73732.3,5.03,-24.11,-25.03,0,*73
1504605670.48,52491,15.0,73730.5,5.01,-23.39,-24.41,0,*7A
1504605671.71,52492,15.0,73726.0,5.01,-22.03,-22.97,0,*7C
1504605672.94,52493,15.0,73724.0,4.99,-20.99,-22.03,0,*71
1504605674.14,52494,15.0,73718.8,4.99,-20.63,-21.63,0,*76
1504605675.39,52495,15.06,73722.0,5.01,-21.09,-22.17,0,*7A
1504605676.62,52496,15.0,73722.5,5.03,-21.09,-22.17,0,*7B
1504605677.84,52497,15.0,73716.3,5.03,-22.11,-23.29,0,*7C
1504605679.07,52498,15.0,73718.3,5.01,-23.13,-24.35,0,*78
1504605680.29,52499,15.0,73718.0,5.01,-22.83,-23.89,0,*71
1504605681.54,52500,15.0,73712.8,4.99,-23.03,-24.15,0,*7B
1504605682.76,52501,15.0,73712.5,4.99,-22.83,-23.95,0,*7C
1504605683.99,52502,15.0,73716.3,4.99,-23.49,-24.57,0,*71
1504605685.23,52503,15.0,73708.5,4.97,-22.73,-23.89,0,*72
1504605686.51,52504,15.0,73716.0,4.97,-23.53,-24.83,0,*7B
1504605687.79,52505,15.0,73712.8,4.97,-23.65,-24.71,0,*72
1504605689.07,52506,15.0,73710.3,4.93,-22.17,-23.29,0,*7B
1504605690.27,52507,15.0,73710.0,4.95,-21.13,-22.11,0,*71
1504605691.54,52508,15.0,73710.3,4.93,-23.53,-24.77,0,*78
1504605692.77,52509,15.0,73712.8,4.93,-24.05,-25.35,0,*7A
1504605694.01,52510,15.0,73710.0,4.93,-23.75,-24.93,0,*7F
1504605695.26,52511,15.0,73700.5,4.91,-23.75,-24.87,0,*79
1504605696.46,52512,15.0,73700.3,4.89,-20.43,-21.43,0,*78
1504605697.71,52513,15.0,73704.3,4.91,-18.73,-19.85,0,*79
1504605698.94,52514,15.0,73712.0,4.95,-18.65,-19.61,0,*77
1504605700.19,52515,15.0,73714.3,4.99,-17.93,-18.93,0,*70
1504605701.4,52516,15.0,73708.3,5.03,-19.07,-19.99,0,*79
1504605702.6,52517,15.0,73704.8,5.07,-20.73,-21.93,0,*74
1504605703.85,52518,15.0,73706.5,5.09,-20.09,-21.27,0,*77
1504605705.07,52519,15.06,73706.3,5.11,-18.65,-19.61,0,*77
1504605706.33,52520,15.0,73700.3,5.15,-18.31,-19.31,0,*7D
1504605707.56,52521,15.0,73708.3,5.17,-18.07,-18.73,0,*7C
1504605708.81,52522,15.06,73712.0,5.21,-18.93,-20.29,0,*73
1504605710.04,52523,15.0,73708.8,5.23,-21.13,-22.17,0,*7D
1504605711.26,52524,15.0,73714.3,5.23,-21.77,-22.73,0,*7A
1504605712.53,52525,15.0,73712.0,5.21,-21.23,-22.21,0,*7F
1504605713.75,52526,15.0,73716.3,5.21,-21.13,-21.93,0,*75
1504605715.03,52527,15.0,73722.3,5.21,-20.99,-22.31,0,*7C
1504605716.29,52528,15.0,73722.5,5.21,-23.19,-24.15,0,*78
1504605717.51,52529,15.0,73718.3,5.21,-22.03,-22.87,0,*7E
1504605718.77,52530,15.0,73718.8,5.19,-21.67,-22.47,0,*70
1504605719.97,52531,15.0,73716.5,5.19,-21.63,-22.27,0,*73
1504605721.24,52532,15.0,73718.8,5.21,-21.57,-22.21,0,*7A
1504605722.49,52533,15.06,73720.8,5.21,-21.73,-22.21,0,*7D
1504605723.72,52534,15.0,73708.3,5.19,-21.53,-21.93,0,*79
1504605724.97,52535,15.06,73704.3,5.21,-22.17,-22.67,0,*78
1504605726.19,52536,15.06,73708.0,5.21,-22.87,-23.39,0,*78
1504605727.41,52537,15.0,73706.5,5.19,-22.07,-22.47,0,*72
1504605728.64,52538,15.0,73696.3,5.21,-21.47,-21.93,0,*7B
1504605729.89,52539,15.0,73694.8,5.21,-20.53,-20.93,0,*7F
1504605731.14,52540,15.0,73688.0,5.21,-19.31,-19.91,0,*77
1504605732.37,52541,15.0,73680.0,5.25,-18.79,-19.41,0,*72
1504605733.6,52542,15.06,73686.0,5.31,-18.45,-19.17,0,*78
1504605734.85,52543,15.0,73684.5,5.31,-17.93,-18.69,0,*75
1504605736.1,52544,15.0,73680.0,5.37,-17.41,-18.35,0,*72
1504605737.33,52545,15.06,73684.0,5.41,-17.17,-18.07,0,*70
1504605738.59,52546,15.0,73672.8,5.43,-16.75,-17.79,0,*72
1504605739.86,52547,15.0,73672.0,5.51,-17.03,-18.55,0,*71
1504605741.05,52548,15.0,73666.8,5.53,-17.73,-18.99,0,*7B
1504605742.27,52549,15.06,73666.0,5.59,-17.83,-19.23,0,*7F
1504605743.52,52550,15.06,73676.0,5.59,-18.35,-19.41,0,*71
1504605744.72,52551,15.0,73696.3,5.63,-17.83,-19.17,0,*78
1504605745.96,52552,15.0,73694.0,5.69,-17.79,-19.13,0,*70
1504605747.17,52553,15.06,73696.3,5.71,-17.55,-18.99,0,*75
1504605748.42,52554,15.0,73692.8,5.73,-19.07,-20.53,0,*74
1504605749.68,52555,15.0,73698.5,5.73,-19.61,-20.93,0,*79
1504605750.91,52556,15.06,73686.5,5.77,-19.51,-20.89,0,*76
1504605752.11,52557,15.06,73692.5,5.75,-19.71,-21.09,0,*7E
1504605753.37,52558,15.0,73720.8,5.77,-19.27,-20.89,0,*79
1504605754.58,52559,15.06,73708.0,5.79,-18.83,-20.59,0,*74
1504605755.79,52560,15.0,73700.3,5.79,-20.15,-21.39,0,*7D
1504605757.01,52561,15.0,73716.5,5.79,-18.69,-20.15,0,*73
1504605758.25,52562,15.06,73716.8,5.81,-17.63,-18.99,0,*7D
1504605759.49,52563,15.06,73710.5,5.85,-18.49,-19.81,0,*77
1504605760.71,52564,15.06,73726.3,5.85,-19.07,-20.29,0,*73
1504605761.99,52565,15.06,73720.8,5.89,-22.21,-23.69,0,*75
1504605763.19,52566,15.0,73710.0,5.83,-24.51,-26.23,0,*76
1504605764.42,52567,15.0,73702.8,5.79,-24.15,-25.61,0,*77
1504605765.67,52568,15.0,73704.3,5.75,-23.29,-24.71,0,*7C
1504605766.89,52569,15.06,73694.0,5.75,-22.77,-24.35,0,*77
1504605768.08,52570,15.0,73694.3,5.71,-24.61,-26.23,0,*7F
1504605769.31,52571,15.0,73706.3,5.71,-24.31,-25.81,0,*70
1504605770.51,52572,15.06,73658.0,5.67,-24.35,-26.03,0,*79
1504605771.73,52573,15.0,73642.5,5.61,-23.59,-24.93,0,*78
1504605772.99,52574,15.06,73672.3,5.57,-22.53,-23.85,0,*71
1504605774.21,52575,15.06,73660.8,5.57,-21.13,-22.53,0,*7D
1504605775.47,52576,15.0,73666.0,5.61,-19.31,-20.59,0,*78
1504605776.71,52577,15.0,73686.0,5.61,-19.81,-21.17,0,*79
1504605777.95,52578,15.06,73682.0,5.63,-18.89,-20.15,0,*7E
1504605779.2,52579,15.0,73684.5,5.69,-18.21,-19.57,0,*7B
1504605780.42,52580,15.0,73686.5,5.71,-18.21,-19.41,0,*73
1504605781.6,52581,15.0,73694.0,5.75,-17.73,-19.07,0,*7C
1504605782.84,52582,15.06,73696.3,5.77,-17.63,-19.13,0,*79
1504605784.09,52583,15.06,73694.5,5.79,-20.49,-22.17,0,*76
1504605785.29,52584,15.06,73702.5,5.79,-21.39,-22.87,0,*7E
1504605786.51,52585,15.06,73698.3,5.75,-23.69,-25.65,0,*7F
1504605787.75,52586,15.06,73704.5,5.73,-23.65,-25.35,0,*73
1504605789.0,52587,15.0,73706.0,5.71,-24.83,-26.77,0,*7A
1504605790.19,52588,15.06,73708.3,5.67,-22.87,-24.61,0,*75
1504605791.42,52589,15.06,73702.3,5.63,-22.77,-24.51,0,*7C
1504605792.67,52590,15.0,73690.0,5.61,-22.47,-24.05,0,*74
1504605793.89,52591,15.0,73706.3,5.61,-21.77,-23.39,0,*7D
1504605795.15,52592,15.06,73700.3,5.61,-22.17,-23.95,0,*7D
1504605796.42,52593,15.06,73700.0,5.61,-21.83,-23.29,0,*75
1504605797.64,52594,15.06,73698.8,5.63,-21.17,-22.73,0,*73
1504605798.87,52595,15.06,73708.5,5.63,-20.89,-22.47,0,*73
1504605800.09,52596,15.0,73704.8,5.61,-22.03,-23.75,0,*72
1504605801.31,52597,15.06,73708.8,5.61,-22.11,-23.75,0,*70
1504605802.59,52598,15.06,73708.5,5.61,-24.11,-25.71,0,*7B
1504605803.84,52599,15.06,73720.0,5.61,-23.79,-25.55,0,*75
1504605805.13,52600,15.06,73710.3,5.57,-24.71,-26.33,0,*7F
1504605806.36,52601,15.06,73678.5,5.51,-23.75,-25.39,0,*72
1504605807.64,52602,15.06,73654.5,5.51,-22.17,-23.29,0,*73
1504605808.86,52603,15.06,73650.8,5.51,-20.39,-21.77,0,*75
1504605810.11,52604,15.06,73646.3,5.53,-19.61,-20.99,0,*76
1504605811.39,52605,15.0,73666.5,5.57,-19.41,-20.79,0,*7F
1504605812.63,52606,15.06,73674.3,5.59,-20.15,-21.57,0,*74
1504605813.85,52607,15.06,73672.8,5.63,-20.39,-21.67,0,*71
1504605815.06,52608,15.06,73672.0,5.63,-19.17,-20.39,0,*72
1504605816.31,52609,15.06,73688.8,5.63,-19.65,-21.03,0,*7E
1504605817.54,52610,15.06,73688.8,5.69,-20.59,-21.93,0,*70
1504605818.77,52611,15.0,73688.5,5.69,-19.37,-20.63,0,*7D
1504605819.99,52612,15.06,73686.0,5.73,-18.65,-19.95,0,*70
1504605821.22,52613,15.06,73676.3,5.75,-18.45,-19.61,0,*7E
1504605822.5,52614,15.0,73678.0,5.77,-19.27,-20.53,0,*75
1504605823.74,52615,15.06,73690.5,5.83,-18.89,-20.15,0,*78
1504605824.97,52616,15.06,73698.3,5.83,-18.25,-19.57,0,*71
1504605826.22,52617,15.06,73694.3,5.85,-20.63,-22.31,0,*77
1504605827.47,52618,15.06,73698.5,5.85,-19.85,-21.17,0,*7D
1504605828.71,52619,15.0,73704.3,5.91,-18.99,-20.49,0,*7F
1504605829.92,52620,15.06,73708.5,5.91,-19.91,-21.47,0,*73
1504605831.21,52621,15.06,73708.5,5.93,-19.27,-20.83,0,*74
1504605832.43,52622,15.06,73706.8,5.95,-18.73,-20.25,0,*7D
1504605833.69,52623,15.06,73704.0,5.95,-19.65,-21.33,0,*7C
1504605834.9,52624,15.06,73706.8,5.99,-18.45,-20.09,0,*7C
1504605836.1,52625,15.06,73712.5,5.99,-20.73,-22.57,0,*7A
1504605837.37,52626,15.06,73710.8,5.99,-21.67,-23.85,0,*73
1504605838.63,52627,15.06,73720.0,5.99,-20.53,-22.31,0,*7A
1504605839.84,52628,15.0,73708.5,5.99,-21.93,-23.75,0,*79
1504605841.1,52629,15.06,73718.3,5.97,-20.89,-22.47,0,*7C
1504605842.34,52630,15.06,73712.0,5.97,-22.67,-24.77,0,*73
1504605843.6,52631,15.06,73712.5,5.93,-23.79,-25.75,0,*7B
1504605844.82,52632,15.06,73714.8,5.91,-22.53,-24.61,0,*77
1504605846.07,52633,15.0,73708.5,5.89,-24.67,-27.13,0,*78
1504605847.33,52634,15.06,73710.0,5.83,-25.71,-28.05,0,*7B
1504605848.55,52635,15.06,73710.8,5.79,-24.61,-26.81,0,*7D
1504605849.77,52636,15.06,73710.3,5.75,-24.41,-26.49,0,*74
1504605851.02,52637,15.06,73702.3,5.75,-22.47,-24.11,0,*7A
1504605852.25,52638,15.06,73714.3,5.75,-21.67,-23.43,0,*74
1504605853.47,52639,15.06,73706.3,5.77,-20.69,-22.53,0,*78
1504605854.69,52640,15.06,73712.0,5.77,-19.91,-21.77,0,*7E
1504605855.95,52641,15.06,73710.8,5.81,-20.35,-22.21,0,*72
1504605857.21,52642,15.06,73704.5,5.81,-21.57,-23.69,0,*79
1504605858.42,52643,15.06,73706.3,5.79,-22.07,-23.99,0,*76
1504605859.69,52644,15.06,73710.3,5.81,-22.31,-24.41,0,*71
1504605860.94,52645,15.06,73696.8,5.79,-23.49,-25.45,0,*7C
1504605862.15,52646,15.06,73698.3,5.79,-21.39,-23.29,0,*76
1504605863.35,52647,15.06,73706.0,5.75,-20.69,-22.53,0,*73
1504605864.59,52648,15.06,73682.0,5.77,-22.63,-24.87,0,*79
1504605865.81,52649,15.06,73668.3,5.77,-21.13,-23.09,0,*7D
1504605867.03,52650,15.06,73658.5,5.77,-19.91,-21.77,0,*7F
1504605868.31,52651,15.06,73646.5,5.81,-20.53,-22.47,0,*73
1504605869.53,52652,15.06,73648.8,5.81,-19.99,-22.03,0,*7C
1504605870.77,52653,15.06,73678.3,5.81,-22.03,-24.25,0,*74
1504605872.02,52654,15.06,73708.0,5.83,-21.53,-23.65,0,*74
1504605873.22,52655,15.06,73706.8,5.83,-21.73,-24.05,0,*76
1504605874.44,52656,15.06,73698.0,5.79,-26.61,-29.17,0,*7A
1504605875.63,52657,15.06,73702.0,5.75,-26.07,-28.69,0,*7F
1504605876.89,52658,15.06,73700.5,5.73,-24.51,-26.81,0,*7F
1504605878.16,52659,15.06,73706.8,5.69,-24.11,-26.71,0,*7E
1504605879.38,52660,15.06,73702.0,5.67,-23.89,-26.17,0,*7C
1504605880.57,52661,15.06,73700.8,5.63,-21.17,-23.13,0,*7D
1504605881.77,52662,15.06,73700.3,5.67,-20.25,-22.27,0,*7C
1504605883.02,52663,15.06,73716.3,5.69,-19.07,-20.99,0,*7E
1504605884.24,52664,15.06,73720.0,5.73,-19.95,-22.03,0,*78
1504605885.46,52665,15.06,73720.0,5.73,-19.99,-22.11,0,*76
1504605886.67,52666,15.06,73714.3,5.75,-21.63,-23.95,0,*70
1504605887.87,52667,15.06,73708.3,5.75,-22.41,-24.77,0,*79
1504605889.12,52668,15.06,73710.5,5.73,-23.53,-26.03,0,*73
1504605890.34,52669,15.06,73708.8,5.71,-21.73,-24.15,0,*75
1504605891.55,52670,15.06,73708.5,5.71,-23.49,-26.45,0,*71
1504605892.77,52671,15.06,73716.5,5.67,-22.73,-25.13,0,*7F
1504605894.0,52672,15.06,73716.3,5.67,-21.73,-24.21,0,*7F
1504605895.25,52673,15.06,73720.5,5.67,-23.23,-25.75,0,*79
1504605896.45,52674,15.06,73696.3,5.63,-23.39,-26.07,0,*77
1504605897.69,52675,15.06,73680.3,5.61,-22.03,-24.25,0,*7E
1504605898.91,52676,15.06,73678.8,5.61,-19.37,-21.63,0,*75
1504605900.11,52677,15.06,73684.3,5.63,-19.37,-21.63,0,*76
1504605901.34,52678,15.06,73696.8,5.67,-18.83,-21.03,0,*75
1504605902.53,52679,15.06,73688.3,5.71,-19.91,-22.37,0,*75
1504605903.79,52680,15.0,73676.8,5.73,-18.89,-21.03,0,*7D
1504605904.99,52681,15.06,73680.8,5.75,-19.07,-21.39,0,*74
1504605906.24,52682,15.06,73688.5,5.77,-19.03,-21.27,0,*7E
1504605907.49,52683,15.06,73684.0,5.77,-19.31,-21.77,0,*7B
1504605908.71,52684,15.06,73690.5,5.81,-20.63,-23.13,0,*78
1504605909.94,52685,15.06,73682.8,5.81,-20.43,-22.83,0,*73
1504605911.15,52686,15.06,73678.0,5.81,-20.05,-22.53,0,*7F
1504605912.41,52687,15.06,73682.0,5.83,-19.31,-21.67,0,*75
1504605913.62,52688,15.06,73686.5,5.85,-20.29,-22.83,0,*76
1504605914.85,52689,15.06,73688.3,5.91,-19.13,-21.57,0,*7B
1504605916.07,52690,15.06,73690.3,5.91,-19.13,-21.73,0,*75
1504605917.3,52691,15.06,73694.5,5.91,-18.65,-20.99,0,*71
1504605918.59,52692,15.06,73698.8,5.97,-17.41,-19.85,0,*7A
1504605919.82,52693,15.06,73700.0,5.99,-17.35,-19.81,0,*72
1504605921.03,52694,15.06,73700.3,6.03,-17.73,-20.05,0,*71
1504605922.27,52695,15.06,73710.3,6.05,-17.87,-20.43,0,*7F
1504605923.48,52696,15.06,73716.3,6.07,-16.75,-19.37,0,*7B
1504605924.74,52697,15.06,73716.0,6.09,-16.93,-19.65,0,*7B
1504605925.97,52698,15.06,73676.8,6.15,-17.21,-19.75,0,*70
1504605927.23,52699,15.06,73682.0,6.17,-19.07,-21.67,0,*71
1504605928.49,52700,15.06,73692.8,6.17,-18.89,-21.39,0,*7C
1504605929.72,52701,15.06,73696.8,6.19,-18.45,-20.99,0,*78
1504605930.95,52702,15.06,73706.0,6.21,-16.65,-19.75,0,*74
1504605932.21,52703,15.06,73708.0,6.23,-18.21,-21.57,0,*72
1504605933.49,52704,15.06,73704.0,6.23,-17.45,-20.35,0,*7D
1504605934.75,52705,15.06,73692.5,6.27,-16.93,-19.65,0,*7D
1504605935.98,52706,15.06,73700.0,6.29,-17.87,-20.99,0,*7D
1504605937.25,52707,15.06,73724.0,6.31,-17.11,-20.15,0,*7E
1504605938.53,52708,15.06,73712.5,6.31,-17.63,-20.83,0,*7B
1504605939.78,52709,15.06,73714.8,6.31,-16.31,-19.47,0,*7E
1504605940.98,52710,15.06,73726.8,6.37,-16.83,-20.05,0,*75
1504605942.24,52711,15.06,73726.0,6.41,-17.55,-20.53,0,*7C
1504605943.47,52712,15.06,73708.3,6.41,-18.79,-21.83,0,*72
1504605944.67,52713,15.06,73694.8,6.41,-16.75,-19.47,0,*72
1504605945.9,52714,15.06,73704.5,6.43,-16.59,-19.37,0,*7E
1504605947.13,52715,15.0,73700.3,6.47,-16.79,-19.75,0,*7F
1504605948.36,52716,15.06,73700.5,6.49,-16.09,-18.83,0,*7D
1504605949.64,52717,15.06,73730.3,6.53,-16.65,-19.81,0,*7E
1504605950.88,52718,15.06,73738.3,6.53,-15.21,-19.37,0,*7F
1504605952.08,52719,15.06,73742.5,6.59,-15.99,-19.91,0,*7B
1504605953.31,52720,15.06,73736.0,6.61,-18.21,-21.63,0,*72
1504605954.51,52721,15.06,73734.0,6.59,-18.17,-21.39,0,*72
1504605955.77,52722,15.06,73738.0,6.61,-17.59,-20.63,0,*71
1504605957.04,52723,15.06,73736.3,6.61,-18.55,-21.57,0,*75
1504605958.28,52724,15.06,73740.8,6.61,-18.07,-20.93,0,*7C
1504605959.51,52725,15.06,73738.5,6.61,-19.71,-22.87,0,*7A
1504605960.75,52726,15.06,73740.3,6.61,-21.93,-25.39,0,*7C
1504605962.0,52727,15.06,73738.3,6.57,-24.15,-27.67,0,*7A
1504605963.29,52728,15.06,73734.3,6.51,-23.53,-26.77,0,*76
1504605964.49,52729,15.06,73698.5,6.45,-22.41,-25.65,0,*70
1504605965.68,52730,15.06,73692.8,6.45,-19.47,-22.41,0,*77
1504605966.9,52731,15.06,73718.5,6.45,-21.43,-25.03,0,*78
1504605968.1,52732,15.06,73706.8,6.45,-22.07,-25.61,0,*7C
1504605969.33,52733,15.06,73714.0,6.43,-21.39,-24.51,0,*77
1504605970.55,52734,15.06,73718.0,6.43,-18.79,-21.73,0,*7B
1504605971.81,52735,15.06,73722.5,6.43,-19.07,-22.17,0,*73
1504605973.06,52736,15.06,73712.5,6.43,-19.95,-23.29,0,*77
1504605974.27,52737,15.06,73710.3,6.41,-22.03,-25.49,0,*73
1504605975.53,52738,15.06,73716.0,6.39,-24.57,-28.25,0,*73
1504605976.76,52739,15.06,73714.0,6.31,-22.57,-26.07,0,*72
1504605978.02,52740,15.06,73716.5,6.29,-24.71,-28.43,0,*79
1504605979.26,52741,15.06,73708.8,6.25,-24.51,-28.09,0,*78
1504605980.5,52742,15.06,73704.8,6.23,-22.37,-25.91,0,*77
1504605981.75,52743,15.06,73700.5,6.19,-20.53,-23.69,0,*7E
1504605982.98,52744,15.06,73696.0,6.21,-20.43,-23.69,0,*73
1504605984.21,52745,15.06,73700.8,6.21,-18.73,-21.83,0,*7C
1504605985.44,52746,15.06,73710.8,6.23,-18.99,-22.07,0,*76
1504605986.71,52747,15.06,73714.0,6.25,-17.59,-20.49,0,*7A
1504605987.93,52748,15.06,73706.5,6.29,-17.55,-20.29,0,*73
1504605989.19,52749,15.06,73712.3,6.31,-16.79,-19.61,0,*72
1504605990.41,52750,15.06,73718.5,6.37,-15.95,-18.55,0,*7B
1504605991.63,52751,15.06,73714.3,6.39,-15.99,-18.79,0,*76
1504605992.85,52752,15.06,73722.5,6.45,-15.89,-18.83,0,*7A
1504605994.1,52753,15.06,73712.8,6.49,-15.35,-18.35,0,*7D
1504605995.34,52754,15.06,73708.5,6.53,-15.81,-19.07,0,*7E
1504605996.6,52755,15.06,73732.3,6.57,-16.17,-19.47,0,*73
1504605997.82,52756,15.06,73730.5,6.61,-15.95,-19.13,0,*7D
1504605999.08,52757,15.06,73730.8,6.63,-16.69,-19.85,0,*71
1504606000.33,52758,15.06,73728.8,6.65,-16.83,-19.85,0,*7C
1504606001.58,52759,15.06,73726.5,6.69,-16.09,-19.07,0,*79
1504606002.82,52760,15.06,73738.5,6.69,-15.85,-18.99,0,*72
1504606004.07,52761,15.06,73724.0,6.73,-19.85,-23.13,0,*7E
1504606005.27,52762,15.06,73724.0,6.71,-23.13,-26.61,0,*79
1504606006.5,52763,15.06,73712.0,6.67,-21.83,-25.35,0,*76
1504606007.77,52764,15.06,73714.0,6.63,-22.17,-25.75,0,*7F
1504606008.98,52765,15.06,73710.0,6.59,-22.57,-26.07,0,*75
1504606010.23,52766,15.06,73708.8,6.53,-21.67,-25.19,0,*70
1504606011.47,52767,15.06,73706.3,6.53,-19.71,-22.97,0,*7C
1504606012.7,52768,15.06,73700.0,6.53,-17.83,-21.17,0,*7B
1504606013.95,52769,15.06,73716.3,6.53,-17.11,-19.99,0,*7C
1504606015.2,52770,15.06,73714.8,6.61,-15.85,-18.65,0,*78
1504606016.46,52771,15.06,73716.0,6.65,-16.79,-19.65,0,*7C
1504606017.68,52772,15.06,73724.3,6.65,-16.03,-18.73,0,*74
1504606018.96,52773,15.06,73726.8,6.69,-16.13,-19.31,0,*7F
1504606020.24,52774,15.06,73726.5,6.73,-16.17,-18.93,0,*7E
1504606021.49,52775,15.06,73722.0,6.73,-16.51,-19.37,0,*72
1504606022.73,52776,15.06,73702.5,6.75,-17.21,-20.25,0,*78
1504606023.95,52777,15.06,73706.3,6.79,-16.79,-19.81,0,*7D
1504606025.19,52778,15.06,73700.8,6.81,-14.43,-17.73,0,*7D
1504606026.43,52779,15.06,73706.0,6.87,-15.75,-19.37,0,*70
1504606027.69,52780,15.06,73722.0,6.87,-16.55,-20.49,0,*74
1504606028.89,52781,15.06,73732.5,6.85,-15.07,-19.95,0,*78
1504606030.12,52782,15.06,73734.3,6.89,-13.37,-18.69,0,*70
1504606031.35,52783,15.06,73730.8,6.91,-16.59,-21.13,0,*72
1504606032.63,52784,15.06,73720.3,6.91,-17.07,-20.79,0,*72
1504606033.86,52785,15.06,73718.8,6.93,-15.67,-18.93,0,*7A
1504606035.09,52786,15.06,73722.3,6.95,-15.75,-18.73,0,*72
1504606036.34,52787,15.06,73718.8,6.99,-14.55,-17.69,0,*78
1504606037.59,52788,15.06,73702.8,6.99,-16.03,-19.81,0,*7E
1504606038.84,52789,15.06,73708.8,7.05,-14.55,-18.55,0,*72
1504606040.04,52790,15.06,73728.3,7.05,-15.29,-18.65,0,*73
1504606041.28,52791,15.06,73740.8,7.07,-14.23,-17.73,0,*73
1504606042.48,52792,15.06,73746.8,7.09,-14.89,-18.73,0,*71
1504606043.7,52793,15.06,73734.8,7.13,-15.57,-19.47,0,*7F
1504606044.93,52794,15.06,73732.3,7.13,-17.17,-20.73,0,*73
1504606046.14,52795,15.06,73724.8,7.13,-19.71,-22.87,0,*75
1504606047.36,52796,15.06,73730.8,7.11,-18.79,-21.73,0,*75
1504606048.6,52797,15.06,73728.5,7.11,-18.59,-21.47,0,*71
1504606049.83,52798,15.06,73732.3,7.11,-16.97,-19.75,0,*78
1504606051.03,52799,15.06,73730.0,7.13,-16.03,-18.65,0,*76
1504606052.25,52800,15.06,73728.3,7.17,-15.81,-18.49,0,*7A
1504606053.51,52801,15.06,73732.0,7.19,-17.17,-19.91,0,*7C
1504606054.73,52802,15.06,73734.0,7.19,-17.31,-19.99,0,*73
1504606055.96,52803,15.06,73732.8,7.25,-17.07,-19.95,0,*74
1504606057.22,52804,15.06,73722.5,7.19,-20.35,-23.33,0,*7C
1504606058.45,52805,15.06,73716.3,7.21,-19.41,-21.47,0,*7E
1504606059.68,52806,15.06,73710.3,7.19,-18.83,-21.73,0,*7E
1504606060.9,52807,15.06,73704.3,7.19,-17.31,-20.05,0,*79
1504606062.1,52808,15.06,73704.8,7.21,-16.37,-19.03,0,*76
1504606063.35,52809,15.06,73722.0,7.25,-16.13,-18.89,0,*76
1504606064.58,52810,15.06,73716.3,7.25,-19.13,-21.97,0,*74
1504606065.84,52811,15.06,73718.5,7.27,-17.17,-19.95,0,*74
1504606067.07,52812,15.06,73726.5,7.29,-16.37,-19.23,0,*77
1504606068.27,52813,15.06,73730.8,7.29,-16.89,-19.75,0,*70
1504606069.5,52814,15.06,73734.8,7.31,-16.59,-19.51,0,*75
1504606070.76,52815,15.06,73736.8,7.33,-19.57,-22.77,0,*7B
1504606071.99,52816,15.06,73728.3,7.29,-19.99,-23.19,0,*78
1504606073.22,52817,15.06,73724.0,7.29,-19.99,-23.29,0,*7A
1504606074.47,52818,15.06,73712.0,7.25,-19.61,-22.73,0,*70
1504606075.68,52819,15.06,73716.5,7.25,-19.13,-22.53,0,*76
1504606076.93,52820,15.06,73720.3,7.25,-18.59,-21.83,0,*7D
1504606078.16,52821,15.06,73724.0,7.27,-18.07,-21.43,0,*79
1504606079.38,52822,15.06,73726.3,7.25,-18.55,-22.41,0,*7E
1504606080.58,52823,15.06,73708.8,7.25,-18.21,-21.77,0,*7A
1504606081.83,52824,15.06,73704.5,7.27,-17.49,-20.99,0,*7F
1504606083.09,52825,15.06,73708.5,7.27,-16.89,-20.19,0,*7B
1504606084.3,52826,15.06,73716.8,7.29,-16.75,-20.29,0,*76
1504606085.52,52827,15.06,73722.5,7.31,-16.37,-19.75,0,*7B
1504606086.75,52828,15.06,73710.5,7.33,-17.25,-21.43,0,*7A
1504606087.97,52829,15.06,73710.8,7.33,-18.89,-22.67,0,*77
1504606089.2,52830,15.06,73718.8,7.33,-18.89,-22.67,0,*7F
1504606090.43,52831,15.06,73710.5,7.29,-22.03,-26.29,0,*70
1504606091.64,52832,15.06,73704.5,7.25,-23.75,-28.15,0,*7E
1504606092.89,52833,15.06,73714.8,7.19,-21.13,-25.29,0,*70
1504606094.11,52834,15.06,73708.8,7.15,-20.05,-24.31,0,*75
1504606095.35,52835,15.06,73718.3,7.15,-21.93,-26.03,0,*79
1504606096.61,52836,15.06,73710.5,7.11,-19.99,-24.21,0,*7D
1504606097.85,52837,15.06,73708.8,7.11,-22.63,-27.19,0,*79
1504606099.1,52838,15.06,73710.8,7.05,-20.49,-24.67,0,*73
1504606100.33,52839,15.06,73714.3,7.05,-19.27,-23.39,0,*7C
1504606101.57,52840,15.06,73706.3,7.05,-19.13,-23.23,0,*7E
1504606102.8,52841,15.06,73696.3,7.07,-20.59,-24.77,0,*7F
1504606104.08,52842,15.06,73694.8,7.03,-20.99,-25.29,0,*7E